Location: El Carrer d�Abaix
(41.5797°N, 2.1791°E)
Time: 11:11:36
(UTC+00:00)

STARLINK-1378 - Pass Details

Date: 08 October 2020
Orbit: 549 x 550 km, 53.0° (Epoch: 21 October)

Event Time Altitude Azimuth Distance (km) Brightness Sun altitude
Exits shadow 02:45:51 11° 33° (NNE) 1,748 6.8 -35.4°
Drops below altitude 10° 02:46:07 10° 35° (NE) 1,825 6.9 -35.4°
Sets 02:48:47 0° 52° (NE) 2,720 8.2 -34.9°
